Location: Newark
(37.8444°N, 127.0614°E)
Time: 12:41:00
(UTC+00:00)

XW-2F - Pass Details

Date: 21 January 2020
Orbit: 502 x 523 km, 97.5° (Epoch: 25 February)

Event Time Altitude Azimuth Distance (km) Brightness Sun altitude
Rises 21:22:40 0° 16° (NNE) 2,611 ? -15.9°
Reaches altitude 10° 21:24:48 10° 20° (NNE) 1,720 ? -15.5°
Maximum altitude 21:28:27 57° 100° (E) 595 ? -14.8°
Drops below altitude 10° 21:32:03 10° 180° (S) 1,702 ? -14.1°
Sets 21:34:09 0° 184° (S) 2,581 ? -13.7°
